Regional Weather Roundup
Issued by NWS

Home | Current Version | Previous Version | Text Only | Print | Product List | Glossary On
Versions: 1 2 3 4 5 6 7 8 9 10 11 12 13 14 15 16 17 18 19 20 21 22 23 24 25 26 27 28 29 30 31 32 33 34 35 36 37 38 39 40 41 42 43 44 45 46 47 48 49 50
000
ASUS44 KBMX 302210
RWRAL

ALABAMA REGIONAL WEATHER ROUNDUP
NATIONAL WEATHER SERVICE BIRMINGHAM AL
400 PM CST FRI JAN 30 2015

NOTE: "FAIR" INDICATES FEW OR NO CLOUDS BELOW 12,000 FEET
WITH NO SIGNIFICANT WEATHER AND/OR OBSTRUCTIONS TO VISIBILITY.

THE REMARK "TC" DENOTES TEMPERATURE IN DEGREES CELSIUS.

ALZ001>011-014-016>018-020-302300-
NORTH ALABAMA

CITY           SKY/WX    TMP DP  RH WIND       PRES   REMARKS
MUSCLE SHOALS  SUNNY     49  21  33 NE5       30.40S
HUNTSVILLE     MOSUNNY   48  20  32 N5        30.38S
DECATUR        SUNNY     47  20  34 N14       30.39S
HALEYVILLE       N/A     45  23  42 CALM      30.40R
GADSDEN        SUNNY     48  19  32 NW12      30.35S
$$

ALZ012-013-022-023-030>036-040>044-302300-
WEST CENTRAL ALABAMA

CITY           SKY/WX    TMP DP  RH WIND       PRES   REMARKS
TUSCALOOSA     SUNNY     55  23  28 N12       30.36S
$$

ALZ015-024>027-033>036-040>044-302300-
CENTRAL ALABAMA

CITY           SKY/WX    TMP DP  RH WIND       PRES   REMARKS
BIRMINGHAM     MOSUNNY   50  21  32 N13       30.37S
MONTGOMERY     MOSUNNY   57  24  28 N10       30.31S
SHELBY CO ARPT SUNNY     52  23  32 VRB7      30.34R
MAXWELL AFB    MOSUNNY   56  24  29 N10       30.31R
GREENVILLE     FAIR      58  24  27 N12       30.29R
$$

ALZ019-021-028-029-037-038-045>048-302300-
EAST CENTRAL ALABAMA

CITY           SKY/WX    TMP DP  RH WIND       PRES   REMARKS
ANNISTON       SUNNY     50  22  33 N7        30.34R
ALEXANDER CITY SUNNY     54  17  23 N13       30.31R
AUBURN         SUNNY     52  23  32 N9G17     30.31S
$$

ALZ051>064-302300-
SOUTHWEST ALABAMA

CITY           SKY/WX    TMP DP  RH WIND       PRES   REMARKS
MOBILE         PTSUNNY   59  30  33 N10       30.30S
BROOKLEY FIELD PTSUNNY   62  29  28 N10       30.31S
EVERGREEN      PTSUNNY   58  29  33 N7        30.30S
$$

ALZ049-050-065>069-302300-
SOUTHEAST ALABAMA

CITY           SKY/WX    TMP DP  RH WIND       PRES   REMARKS
DOTHAN         MOSUNNY   57  28  33 N13       30.30R
OZARK          MOSUNNY   58  25  27 N10       30.26S
TROY           MOSUNNY   57  24  28 N12G22    30.29S
EUFAULA        FAIR      58  25  28 VRB7      30.26R
$$



USA.gov is the U.S. government's official web portal to all federal, state and local government web resources and services.